Weather Roundup
Issued by NWS Corpus Christi, TX

Home | Current Version | Previous Version | Text Only | Print | Product List | Glossary On
Versions: 1 2 3 4 5 6 7 8 9 10 11 12 13 14 15 16 17 18 19 20 21 22 23 24 25 26 27 28 29 30 31 32 33 34 35 36 37 38 39 40 41 42 43 44 45 46 47 48 49 50
000
ASUS44 KCRP 020010
HRRCRP

SOUTH TEXAS REGIONAL WEATHER ROUNDUP
NATIONAL WEATHER SERVICE CORPUS CHRISTI TX
600 PM CST SUN FEB 01 2015


TXZ229>244-020100-
...CORPUS CHRISTI AREA OBSERVATIONS...

CITY           SKY/WX    TMP DP  RH WIND       PRES   REMARKS
CORPUS CHRISTI CLOUDY    72  62  71 SE8       29.91R
NAS CORPUS CHR CLOUDY    67  64  90 S6        29.91R
ROCKPORT       CLOUDY    68  62  81 S6        29.92R
KINGSVILLE NAS CLOUDY    74  65  73 S3        29.91R
ALICE          CLOUDY    76  57  51 N9        29.92R
FALFURRIAS     CLOUDY    75  59  57 CALM      29.91R
$$

...VICTORIA AREA OBSERVATIONS...

CITY           SKY/WX    TMP DP  RH WIND       PRES   REMARKS
VICTORIA       CLOUDY    73  61  65 N9        29.94R
BEEVILLE       FAIR      71  59  65 N6        29.95R
PLEASANTON     CLOUDY    68  52  55 N9        29.99R
SAN ANTONIO    CLOUDY    64  50  60 N17G30    30.02R
$$

...LAREDO AREA OBSERVATIONS...

CITY           SKY/WX    TMP DP  RH WIND       PRES   REMARKS
LAREDO         CLOUDY    71  55  56 NW9       29.98R
COTULLA        CLOUDY    73  57  57 NE5       29.96R
DEL RIO        CLEAR     68  48  48 N10G20    30.01R
MCALLEN        CLOUDY    76  60  57 NE3       29.90R
HEBBRONVILLE   CLOUDY    71  55  55 N5        29.95R
$$

...OTHER TEXAS OBSERVATIONS...

CITY           SKY/WX    TMP DP  RH WIND       PRES   REMARKS
BROWNSVILLE    CLOUDY    71  60  68 S7        29.91R
HOUSTON        CLOUDY    69  58  67 N15G24    29.93R
COL. STATION   CLEAR     58  46  64 N16       30.03R
AUSTIN         PTCLDY    60  47  61 N17       30.04R
WACO           CLEAR     51  35  54 N22G28    30.12R
FORT WORTH     PTCLDY    46  27  47 N28G33    30.13R
WICHITA FALLS  CLEAR     42  25  50 N13       30.19R
LUBBOCK        PTCLDY    42  28  57 NE10      30.19R
EL PASO        PTCLDY    60  39  45 VRB3      30.07R
$$

...MARINE OBSERVATIONS...

STATION/POSITION TIME  SKY/WX   TEMP    WIND        PRES    VSBY  WAVE   SWELL
                                AIR SEA DIR/SP/G                  HT/PER HT/PER
                 (UTC)          (F)     (DEG/KT/KT) (MB)    (MI)  (FT/S) (FT/S)
PORT ARANSAS     0000            63 61  160/  3/  3 1013.7R
BUOY 90 E PORT A 0000            69 69  250/  6/  6 1013.4R         4/ 6   3/ 6
BUOY 45 SE BAFFI 0000            66 64  150/  6/  8 1012.4F         3/ 6   3/ 6
BUOY 200 E PT IS 0000            72 72  190/ 10/ 12 1013.5R         4/ 6   3/ 6
BUOY 15 E GALVES 0000            63 59  210/ 10/ 10 1012.7R         3/ 6   3/ 6
$$



USA.gov is the U.S. government's official web portal to all federal, state and local government web resources and services.